Weather History for KSSI - December, 2011

Change the Weather History Date:

Monday, December 26, 2011

  Actual Average Record
Temperature  
Mean Temperature 58 °F 52 °F  
Max Temperature 63 °F 61 °F 79 °F (1971)
Min Temperature 53 °F 43 °F 14 °F (1983)
Degree Days  
Heating Degree Days 7 13  
Month to date heating degree days 156 283  
Since 1 July heating degree days 302 463  
Cooling Degree Days 0 0  
Month to date cooling degree days 10 9  
Year to date cooling degree days 3035 2624  
Growing Degree Days 8 (Base 50)    
Moisture  
Dew Point 52 °F    
Average Humidity 78    
Maximum Humidity 100    
Minimum Humidity 56    
Precipitation  
Precipitation 0.00 in 0.09 in 0.90 in (1976)
Month to date precipitation 1.13 2.22  
Year to date precipitation 29.06 44.58  
Snow  
Snow 0.00 in - 0.00 in ()
Month to date snowfall 0.0  
Since 1 July snowfall 0.0  
Snow Depth 0.00 in    
Sea Level Pressure  
Sea Level Pressure 30.24 in    
Wind  
Wind Speed 9 mph (NNE)    
Max Wind Speed 18 mph    
Max Gust Speed 23 mph    
Visibility 9 miles    
Events      
T = Trace of Precipitation, MM = Missing Value Source: NWS Daily Summary

Daily Weather History Graph

Daily Weather History Graph

Search for Another Location

Airport or City:

Trip Planner

Search our weather history database for the weather conditions in past years. The results will help you decide how hot, cold, wet, or windy it might be!

Date:

Astronomy

Dec. 26, 2011 Rise Set
Actual Time 7:22 AM EST 5:30 PM EST
Civil Twilight 6:55 AM EST 5:56 PM EST
Nautical Twilight 6:25 AM EST 6:27 PM EST
Astronomical Twilight 5:55 AM EST 6:56 PM EST
Moon 8:47 AM EST (12/26) 7:48 PM EST (12/26)
Length of Visible Light 11h 01m
Length of Day
10h 07m
Waxing Crescent, 5% of the Moon is Illuminated
Dec 26
Waxing Crescent
Jan 1
First Quarter
Jan 9
Full
Jan 16
Last Quarter
Jan 23
New

Hourly Weather History & Observations

Time (EST) Temp. Dew Point Humidity Pressure Visibility Wind Dir Wind Speed Gust Speed Precip Events Conditions
12:07 AM 57.2 °F 55.4 °F 94% 30.23 in 10.0 mi NNW 5.8 mph - N/A   Mostly Cloudy
12:36 AM 57.2 °F 55.4 °F 94% 30.20 in 10.0 mi Calm Calm - N/A   Overcast
12:53 AM 57.0 °F 55.0 °F 93% 30.20 in 10.0 mi NNW 3.5 mph - N/A   Mostly Cloudy
1:38 AM 57.2 °F 55.4 °F 94% 30.21 in 7.0 mi NNW 5.8 mph - N/A   Overcast
1:53 AM 55.9 °F 55.0 °F 97% 30.22 in 4.0 mi NNW 8.1 mph - N/A   Overcast
2:05 AM 55.4 °F 55.4 °F 100% 30.23 in 2.0 mi NW 6.9 mph - N/A   Overcast
2:25 AM 55.4 °F 55.4 °F 100% 30.23 in 1.5 mi NW 5.8 mph - N/A   Overcast
2:53 AM 55.9 °F 54.0 °F 93% 30.23 in 1.5 mi NNW 6.9 mph - N/A   Overcast
3:00 AM 55.4 °F 55.4 °F 100% 30.23 in 3.0 mi NNW 4.6 mph - N/A   Overcast
3:32 AM 55.4 °F 53.6 °F 94% 30.24 in 10.0 mi NNW 4.6 mph - N/A   Overcast
3:53 AM 55.0 °F 54.0 °F 96% 30.24 in 10.0 mi NNW 4.6 mph - N/A   Overcast
4:15 AM 55.4 °F 53.6 °F 94% 30.23 in 10.0 mi NNW 3.5 mph - N/A   Scattered Clouds
4:53 AM 55.0 °F 53.1 °F 93% 30.23 in 10.0 mi NNW 5.8 mph - N/A   Partly Cloudy
5:53 AM 54.0 °F 52.0 °F 93% 30.23 in 10.0 mi NNW 3.5 mph - N/A   Clear
6:53 AM 54.0 °F 51.1 °F 90% 30.25 in 10.0 mi NNW 5.8 mph - N/A   Clear
7:53 AM 53.1 °F 48.9 °F 86% 30.26 in 10.0 mi North 8.1 mph - N/A   Clear
8:53 AM 54.0 °F 48.0 °F 80% 30.28 in 10.0 mi North 8.1 mph - N/A   Clear
9:53 AM 57.0 °F 46.9 °F 69% 30.30 in 10.0 mi NE 8.1 mph - N/A   Clear
10:53 AM 59.0 °F 48.0 °F 67% 30.31 in 10.0 mi NNE 13.8 mph 20.7 mph N/A   Clear
11:53 AM 57.9 °F 46.0 °F 65% 30.29 in 10.0 mi NE 15.0 mph 23.0 mph N/A   Clear
12:53 PM 60.1 °F 46.9 °F 62% 30.27 in 10.0 mi NE 15.0 mph - N/A   Clear
1:53 PM 61.0 °F 46.0 °F 58% 30.27 in 10.0 mi NE 12.7 mph - N/A   Clear
2:53 PM 62.1 °F 46.0 °F 56% 30.25 in 10.0 mi NE 13.8 mph - N/A   Clear
3:53 PM 61.0 °F 46.0 °F 58% 30.25 in 10.0 mi NE 12.7 mph 21.9 mph N/A   Clear
4:53 PM 59.0 °F 46.9 °F 64% 30.25 in 10.0 mi NE 11.5 mph - N/A   Clear
5:53 PM 57.0 °F 46.9 °F 69% 30.25 in 10.0 mi NE 9.2 mph - N/A   Clear
6:53 PM 59.0 °F 50.0 °F 72% 30.24 in 10.0 mi NE 9.2 mph - N/A   Partly Cloudy
7:53 PM 60.1 °F 50.0 °F 69% 30.23 in 10.0 mi ENE 10.4 mph - N/A   Clear
8:53 PM 61.0 °F 53.1 °F 75% 30.22 in 10.0 mi ENE 9.2 mph - N/A   Clear
9:53 PM 63.0 °F 54.0 °F 72% 30.20 in 10.0 mi East 9.2 mph - N/A   Clear
10:53 PM 62.6 °F 55.4 °F 77% 30.17 in 10.0 mi ESE 6.9 mph - N/A   Clear
11:53 PM 63.0 °F 55.9 °F 78% 30.14 in 10.0 mi ESE 6.9 mph - N/A   Clear